Probability
3 1 0 0 0 0 0 0 0 0 0 0 0 0 0 0 0 0 0 0 0 0 0 0 0 0 0 0 0 0 0 0 0 0 0 0 0 0 0 0 0 0 0 0 0 0 0 0 0
1 0 0 0 0 0 0 0 0 0 0 0 0 0 0 0 0 0 0 0 0 0 0 0 0 0 0 0 0 0 0 0 0 0 0 0 0 0 0 0 0 0 0 0 0 0 0 0 0
0 0 0 0 0 0 0 0 0 0 0 0 0 0 0 0 0 0 0 0 0 0 0 0 0 0 0 0 0 0 0 0 0 0 0 0 0 0 0 0 0 0 0 0 0 0 0 0 0
0 0 0 0 0 0 0 0 0 0 0 0 0 0 0 0 0 0 0 0 0 0 0 0 0 0 0 0 0 0 0 0 0 0 0 0 0 0 0 0 0 0 0 0 0 0 0 0 0
0 0 0 0 0 0 0 0 0 0 0 0 0 0 0 0 0 0 0 0 0 0 0 0 0 0 0 0 0 0 0 0 0 0 0 0 0 0 0 0 0 0 0 0 0 0 0 0 0
0 0 0 0 0 0 0 0 0 0 0 0 0 0 0 0 0 0 0 0 0 0 0 0 0 0 0 0 0 0 0 0 0 0 0 0 0 0 0 0 0 0 0 0 0 0 0 0 0
0 0 0 0 0 0 0 0 0 0 0 0 0 0 0 0 0 0 0 0 0 0 0 0 0 0 0 0 0 0 0 0 0 0 0 0 0 0 0 0 0 0 0 0 0 0 0 0 0
0 0 0 0 0 0 0 0 0 0 0 0 0 0 0 0 0 0 0 0 0 0 0 0 0 0 0 0 0 0 0 0 0 0 0 0 0 0 0 0 0 0 0 0 0 0 0 0 0
0 0 0 0 0 0 0 0 0 0 0 0 0 0 0 0 0 0 0 0 0 0 0 0 0 0 0 0 0 0 0 0 0 0 0 0 0 0 0 0 0 0 0 0 0 0 0 0 0
0 0 0 0 0 0 0 0 0 0 0 0 0 0 0 0 0 0 0 1 1 1 1 0 0 0 0 0 0 0 0 0 0 0 0 0 0 0 0 0 0 0 0 0 0 0 0 0 0
0 0 0 0 0 0 0 0 0 0 0 0 0 0 0 0 0 0 0 1 3 5 4 2 1 1 0 0 0 0 0 0 0 0 0 0 0 0 0 0 0 0 0 0 0 0 0 0 0
0 0 0 0 0 0 0 0 0 0 0 0 0 0 0 0 0 0 0 1 5 9 9 6 4 2 2 1 1 0 0 0 0 0 0 0 0 0 0 0 0 0 0 0 0 0 0 0 0
0 0 0 0 0 0 0 0 0 0 0 0 0 0 0 0 0 0 0 0 5 14 17 15 12 10 10 9 5 2 0 0 0 0 0 0 0 0 0 0 0 0 0 0 0 0 0 0 0
0 0 0 0 0 0 0 0 0 0 0 0 1 2 1 0 0 0 0 0 4 13 20 24 27 26 25 23 15 8 3 1 0 0 0 0 0 0 0 0 0 0 0 0 0 0 0 0 0
0 0 0 0 0 0 0 0 0 0 0 0 1 2 2 1 0 1 2 3 5 8 13 23 33 37 39 36 27 16 9 4 1 0 0 0 0 0 0 0 0 0 0 0 0 0 0 0 0
0 0 0 0 0 0 0 0 0 0 0 0 1 1 2 1 0 0 2 5 6 6 8 15 25 33 39 41 36 26 17 10 5 2 0 0 0 0 0 0 0 0 0 0 0 0 0 0 0
0 0 0 0 0 0 0 0 0 0 0 0 0 1 1 1 0 1 4 6 7 9 10 12 16 20 27 35 37 32 26 19 13 8 3 1 0 0 0 0 0 0 0 0 0 0 0 0 0
0 0 0 0 0 0 0 0 0 0 0 0 0 0 0 0 1 3 6 7 8 12 14 15 15 14 15 21 30 35 34 30 25 19 11 4 0 0 0 0 0 0 0 0 0 0 0 0 0
0 0 0 0 0 0 0 0 0 0 0 0 0 0 0 0 1 3 5 6 7 11 14 15 17 17 14 14 25 37 40 38 35 29 18 8 2 0 0 0 0 0 0 0 0 0 0 0 0
0 0 0 0 0 0 0 0 0 0 0 0 0 0 0 0 0 1 2 3 4 6 7 10 15 19 18 17 26 40 45 42 40 33 23 13 5 1 0 0 0 0 0 0 0 0 0 0 0
0 0 0 0 0 0 0 0 0 0 0 0 0 0 0 0 0 0 1 2 3 2 2 3 8 14 15 16 27 41 45 44 43 36 27 17 9 2 0 0 0 0 0 0 0 0 0 0 0
0 0 0 0 0 0 0 0 0 0 0 0 0 0 0 0 0 0 0 1 3 2 1 1 3 6 8 10 20 33 40 42 43 38 29 21 12 4 2 1 1 0 0 0 0 0 0 0 0
0 0 0 0 0 0 0 0 0 0 0 0 0 0 0 0 0 0 0 1 2 2 1 0 1 2 2 3 8 16 25 31 35 33 28 23 14 6 3 3 2 1 1 0 0 0 0 0 0
0 0 0 0 0 0 0 0 0 0 0 0 0 0 0 0 0 0 0 0 1 1 1 0 0 0 0 0 1 5 10 17 23 24 22 19 13 6 3 3 2 2 1 0 0 0 0 0 0
0 0 0 0 0 0 0 0 0 0 0 0 0 0 0 0 0 0 0 0 0 0 0 0 0 0 0 0 0 1 4 8 13 15 14 12 9 5 3 2 1 1 0 0 0 0 0 1 1
0 0 0 0 0 0 0 0 0 0 0 0 0 0 0 0 0 0 0 0 0 0 0 0 0 0 0 0 0 0 1 3 6 7 7 6 5 3 2 1 1 0 0 0 0 0 0 1 2
0 0 0 0 0 0 0 0 0 0 0 0 0 0 0 0 0 0 0 0 0 0 0 0 0 1 1 1 0 0 0 1 1 3 3 2 2 1 0 0 1 0 0 0 0 0 0 1 1
0 0 0 0 0 0 0 0 0 0 0 0 0 0 0 0 0 0 0 0 0 0 0 0 0 1 2 1 0 0 0 0 0 1 1 1 0 0 0 0 0 0 0 0 0 0 0 0 0
0 0 0 0 0 0 0 0 0 0 0 0 0 0 0 0 0 0 0 0 0 0 0 0 0 1 1 1 0 0 0 0 0 0 0 0 0 0 0 0 0 0 0 0 0 0 0 0 0
0 0 0 0 0 0 0 0 0 0 0 0 0 0 0 0 0 0 0 0 0 0 0 0 0 0 0 0 0 0 0 0 0 0 0 0 0 0 0 0 0 0 0 0 0 0 0 0 0
Wind_Speed
2 1 2 2 6 6 3 1 3 4 5 4 7 9 7 5 3 5 5 13 15 13 11 13 15 15 14 14 14 14 13 13 12 12 12 12 11 11 10 10 10 10 10 10 10 9 9 9 8
0 2 2 4 7 4 1 1 4 3 6 7 7 7 7 5 6 9 7 14 16 14 11 11 16 15 14 14 13 13 13 13 12 12 12 11 11 11 10 10 10 10 9 9 9 9 8 8 7
2 3 2 4 3 5 3 3 4 3 6 5 5 5 6 5 7 5 10 17 15 13 10 12 16 15 14 13 13 13 13 12 12 11 11 11 10 10 10 10 10 10 9 9 8 8 7 6 6
1 3 4 4 2 5 6 5 4 5 6 5 6 6 4 4 6 12 18 16 15 12 10 12 16 15 14 13 13 13 13 12 12 11 11 10 10 10 9 9 9 9 9 9 8 7 6 5 4
3 4 4 3 0 1 2 3 5 6 4 5 8 6 4 3 15 20 17 16 15 12 10 11 16 15 14 13 13 13 13 12 12 11 11 10 10 9 9 9 9 9 9 8 7 6 5 4 3
4 4 4 2 3 2 1 3 7 10 8 7 8 6 2 6 15 17 16 14 14 14 11 11 16 15 14 13 13 13 13 13 12 12 11 10 10 9 9 9 8 8 8 7 6 5 4 4 2
4 3 1 1 2 3 3 3 6 7 7 6 8 7 4 5 11 14 15 14 13 13 12 9 9 11 14 14 13 13 13 13 13 12 11 11 10 9 9 9 8 7 7 6 5 4 3 2 1
4 4 3 4 3 4 5 3 4 7 6 7 7 9 7 8 10 12 13 12 12 10 10 10 8 8 7 8 13 14 13 13 13 13 12 11 11 10 10 9 8 7 7 6 5 4 3 2 2
4 6 2 2 2 5 6 4 4 5 7 3 3 6 11 14 12 12 11 9 10 10 9 10 9 8 7 7 11 12 13 13 13 11 13 10 5 5 6 8 9 8 7 6 6 5 4 3 3
5 4 2 3 3 4 5 3 2 5 6 4 5 6 12 12 13 14 15 14 14 13 12 10 11 10 9 8 7 5 6 6 6 5 6 5 4 4 6 8 11 10 8 7 7 6 5 4 2
3 4 4 3 4 3 3 3 3 5 3 4 9 11 12 10 11 13 15 16 16 15 14 13 12 11 10 7 6 4 3 4 5 6 6 5 4 4 4 3 5 5 6 3 4 4 3 3 2
2 2 6 6 5 2 1 1 4 4 1 2 8 11 9 8 9 10 11 13 12 14 15 14 14 12 11 9 7 7 5 5 5 6 7 5 4 4 4 4 4 3 2 3 3 2 4 4 4
1 0 1 3 4 3 1 3 4 8 7 6 8 8 6 5 3 2 3 6 8 12 13 15 15 14 12 9 8 8 7 7 7 7 8 8 6 5 5 4 4 4 3 4 4 4 4 5 5
2 1 2 2 3 3 5 6 7 8 9 10 10 7 4 4 3 3 2 0 4 7 10 12 14 14 12 11 9 8 8 8 7 7 8 10 7 7 7 6 5 5 5 5 4 4 4 4 3
2 3 5 5 3 3 6 9 8 7 9 11 10 9 9 8 8 7 5 4 3 0 3 7 11 12 13 12 11 9 8 8 8 8 9 9 8 8 8 7 7 6 6 5 3 3 3 3 3
5 4 3 5 5 4 6 4 6 7 10 11 10 10 10 9 9 8 9 9 8 6 5 2 5 8 10 10 10 8 8 8 8 7 7 9 9 9 7 7 7 7 5 4 3 3 2 2 2
6 3 3 4 6 4 6 4 7 9 12 12 12 11 11 12 13 12 11 10 10 9 8 6 5 2 6 8 8 7 8 8 7 7 7 8 9 9 7 6 6 6 5 4 4 2 3 2 2
2 2 3 4 6 7 8 7 10 13 15 14 13 12 12 13 13 13 12 11 10 9 8 8 7 6 3 3 4 4 5 6 6 6 7 8 8 9 7 5 6 6 4 3 3 3 2 2 3
3 5 4 3 5 7 9 10 12 15 17 16 14 14 14 13 11 12 12 11 10 10 10 8 8 7 4 1 2 4 5 5 5 5 7 7 7 8 8 6 6 5 4 5 5 4 3 2 2
8 6 5 4 5 4 9 11 11 16 16 15 15 15 15 16 16 16 14 13 12 11 10 9 8 7 5 3 2 2 3 3 4 3 4 5 6 7 7 7 6 5 5 4 4 4 3 1 2
5 4 3 4 5 4 6 7 11 10 14 16 16 14 14 15 15 16 15 13 12 11 11 10 9 8 7 5 2 1 1 0 1 2 3 3 4 5 5 6 5 5 5 4 4 4 5 3 1
4 4 4 3 3 2 3 2 8 10 14 18 17 16 15 15 15 13 14 13 12 11 10 9 9 8 7 6 3 4 5 5 5 4 3 3 2 3 4 5 4 4 3 4 4 4 4 4 3
5 7 4 2 1 2 5 5 5 8 14 18 16 16 15 15 15 14 13 12 11 11 9 9 9 8 8 7 5 2 3 4 3 4 5 4 3 3 4 5 5 5 4 4 4 4 4 3 3
5 6 6 6 6 5 6 4 6 8 12 15 15 15 14 14 14 13 11 10 10 9 8 8 8 8 8 8 6 3 1 3 5 5 5 4 3 3 4 4 4 3 3 4 4 4 4 3 4
9 7 7 9 7 3 4 7 4 7 9 11 14 14 14 12 12 12 12 11 10 10 9 8 8 7 8 7 7 6 4 3 3 3 4 4 3 2 4 4 3 3 3 3 3 3 3 4 4
5 5 5 2 0 1 5 4 2 5 8 9 10 11 13 13 11 12 12 10 9 9 8 7 7 7 7 7 6 6 6 4 3 4 3 3 2 2 2 2 2 2 2 2 2 2 3 3 4
4 4 1 5 2 3 3 3 4 7 11 11 13 14 14 14 13 12 11 10 9 8 8 7 6 6 6 6 5 6 6 5 5 5 4 3 2 1 2 2 1 0 0 1 2 2 2 2 3
4 2 5 5 3 2 2 3 6 12 14 14 14 14 14 13 13 12 10 9 8 8 7 7 7 6 6 6 5 5 5 5 5 5 5 4 3 3 3 3 1 1 1 1 1 1 2 2 2
7 6 5 4 4 3 2 2 4 7 8 10 11 11 12 11 11 11 10 9 8 8 7 7 7 7 7 7 5 6 5 5 5 5 4 3 3 2 2 1 1 1 1 1 1 2 2 2 2
4 4 3 4 3 3 3 2 5 5 7 7 9 9 9 9 9 9 9 9 8 8 8 7 7 7 7 6 6 6 5 5 5 4 4 3 3 3 2 2 2 2 2 2 1 1 1 2 3
Wind_Direction
278 193 120 78 53 54 80 80 86 59 64 69 81 85 86 70 98 136 138 145 138 147 152 149 146 141 137 135 132 130 129 126 123 121 118 117 116 113 111 110 108 106 104 102 100 101 104 107 107
260 138 108 61 78 77 53 118 86 98 133 122 85 85 83 71 84 103 121 142 141 146 149 150 149 144 141 139 137 134 132 129 126 124 123 121 119 117 117 116 113 109 106 104 100 99 102 105 105
233 173 95 66 108 148 168 192 150 111 112 104 84 64 80 110 113 114 140 142 140 145 148 153 152 149 147 144 142 139 136 134 132 130 128 125 124 122 121 120 119 116 112 108 104 100 102 103 103
86 61 51 72 148 195 176 195 155 104 67 65 93 63 57 129 130 131 140 143 142 145 147 155 154 154 153 150 148 146 143 141 139 137 134 132 131 129 126 124 122 121 118 116 111 107 108 109 108
81 69 44 37 14 216 180 161 116 107 87 78 88 81 38 51 121 134 144 145 143 145 150 158 158 159 158 158 156 153 150 148 146 144 142 141 138 134 130 127 124 123 122 120 115 112 113 115 108
58 63 57 14 339 349 41 91 92 97 114 114 106 102 81 120 131 144 147 146 146 149 155 160 163 164 165 164 162 160 158 156 153 151 150 150 146 142 139 135 131 129 127 125 122 119 121 122 110
90 74 46 342 352 21 30 68 100 117 136 145 130 102 124 152 147 149 149 147 149 153 156 159 164 167 170 169 168 167 165 163 160 158 158 158 156 155 152 149 147 144 143 142 139 139 139 142 145
114 85 39 6 11 341 329 22 103 111 120 135 124 129 162 189 158 147 148 149 152 156 161 163 165 167 169 172 175 173 172 170 168 167 167 168 167 167 166 164 166 165 167 167 166 175 188 209 261
84 75 67 3 340 302 322 10 40 66 87 72 91 148 164 167 152 143 147 151 159 165 170 171 171 172 170 173 183 179 178 178 176 175 176 173 170 172 175 181 183 184 186 189 193 204 221 239 273
87 106 177 193 222 259 312 348 40 74 71 58 70 106 144 156 156 157 163 168 173 177 181 181 180 179 176 182 178 175 179 178 177 175 177 168 172 188 191 201 197 197 199 204 210 221 235 247 276
109 150 173 188 218 254 313 340 31 101 89 163 156 154 160 164 167 171 175 178 182 182 184 185 186 183 181 183 173 179 176 175 180 183 182 175 180 198 205 199 208 208 209 216 228 236 248 253 259
72 162 164 185 206 214 243 336 44 50 28 157 152 151 156 167 176 181 182 185 183 183 190 187 187 186 187 183 179 181 181 184 189 194 191 183 187 198 196 197 201 202 205 211 224 230 242 253 256
39 254 176 184 200 226 6 47 71 25 15 77 100 110 128 151 167 195 197 190 181 185 191 189 189 188 186 182 182 184 188 191 195 196 198 191 189 191 188 196 202 209 209 210 219 226 233 240 243
243 260 300 312 302 10 53 36 49 9 13 61 73 77 79 71 63 44 18 242 187 193 196 188 189 189 185 184 186 187 190 192 193 199 201 195 191 189 188 195 202 211 213 211 213 220 223 225 204
338 348 350 357 12 25 78 42 21 357 29 46 48 52 51 47 46 38 25 21 25 313 227 201 192 187 187 188 190 188 191 189 194 200 202 200 194 191 191 195 200 209 214 213 208 216 201 197 168
18 28 6 355 22 13 79 62 356 6 44 39 34 36 41 36 35 32 28 26 23 18 2 323 222 199 194 192 193 192 192 191 196 199 200 203 201 193 187 191 198 200 197 194 188 178 160 174 153
25 18 354 349 14 26 74 69 9 21 44 41 32 28 30 28 25 22 24 25 24 22 11 357 345 263 213 204 199 197 191 193 195 195 196 201 202 194 182 187 191 181 176 178 180 155 153 155 161
350 3 3 7 4 48 70 64 32 30 43 42 32 26 24 24 16 13 16 19 18 20 20 14 4 353 315 245 213 198 194 194 193 195 197 196 194 189 181 179 179 167 158 163 155 141 133 146 157
82 66 36 18 11 57 74 64 43 34 38 33 24 19 16 12 7 8 11 12 13 15 15 10 360 349 347 291 226 203 200 196 196 194 193 189 184 180 175 169 166 159 160 166 156 139 134 134 133
55 55 14 334 354 63 87 68 48 42 36 30 23 16 8 2 2 2 2 7 8 6 5 4 354 341 328 293 248 225 209 194 194 190 187 182 175 170 170 164 163 157 152 156 153 138 135 144 137
37 48 345 317 351 41 105 62 30 26 28 24 19 13 7 1 358 355 354 357 0 1 360 356 345 340 330 314 271 198 153 103 165 180 185 179 169 161 156 163 159 158 155 163 163 153 147 158 170
332 323 317 311 20 326 46 95 21 355 11 13 6 1 1 354 352 350 348 350 352 350 349 346 345 343 339 331 297 216 195 197 193 175 169 143 149 153 148 155 159 156 158 163 173 166 157 153 167
299 298 298 287 150 45 15 96 13 355 4 357 352 351 354 349 344 342 343 342 342 343 346 346 346 349 346 347 338 279 219 204 162 150 154 152 145 142 154 161 161 162 164 172 179 170 165 166 169
334 356 22 42 68 55 348 74 29 2 344 337 341 342 344 342 340 337 338 339 340 342 346 348 349 350 351 355 360 360 207 171 154 161 166 161 153 152 156 152 157 161 165 175 183 181 174 179 179
23 46 31 20 29 41 19 71 36 332 334 331 332 332 334 339 340 337 338 338 338 340 346 348 349 352 354 2 9 15 32 75 123 145 152 146 146 157 164 158 153 161 169 178 181 181 182 190 188
16 78 109 117 305 344 30 54 306 321 330 329 332 335 340 346 344 342 338 336 337 345 348 349 355 357 358 7 13 22 34 49 61 74 92 108 115 123 138 139 144 160 164 185 192 185 198 199 199
24 19 139 136 68 73 47 9 313 333 343 347 350 349 349 348 344 343 345 346 348 353 352 356 6 7 6 11 24 34 39 53 62 63 67 75 84 102 99 93 101 159 182 219 206 194 199 198 197
51 46 53 68 78 70 48 12 330 331 336 342 346 346 344 349 351 350 350 351 353 352 353 8 14 16 16 20 30 44 41 49 58 63 63 63 63 58 55 57 50 346 301 268 205 185 206 191 200
6 24 57 77 90 112 62 333 302 303 316 328 332 335 339 344 347 351 350 351 354 359 4 12 17 24 25 26 31 38 39 44 55 57 53 56 64 60 57 60 41 346 312 295 208 210 201 191 211
46 30 79 104 68 76 114 282 290 293 299 309 317 326 333 338 340 343 346 351 357 2 7 11 16 23 21 20 30 36 35 41 49 46 36 33 33 36 40 45 46 27 16 18 10 264 211 195 208